When you browse on this site, cookies collect data to enhance your experience and personalize the content and advertising you see.
Visit our Privacy Policy to learn more. By continuing to use the site, you agree to this use of cookies and data.
  • In Romania
  • List of Countries
  • For 7 days
  • Water Temperature
  • Satellite Maps
  • Weather Map
  • Weather Widgets
  • user-avatar
    Login

    Hourly Weather Drezdenko

    Today, 24 May, Friday

    Time Temperature Precipitation Wind Pressure Humidity
    00:00 +9°C° 0 mm 1 mps 760 mmHg 82%
    01:00 +9°C° 0 mm 1 mps 759 mmHg 84%
    02:00 +8°C° 0 mm 0 mps 759 mmHg 84%
    03:00 +8°C° 0 mm 0 mps 759 mmHg 84%
    04:00 +8°C° 0 mm 0 mps 759 mmHg 85%
    05:00 +11°C° 0 mm 1 mps 759 mmHg 77%
    06:00 +13°C° 0 mm 1 mps 759 mmHg 70%
    07:00 +16°C° 0 mm 1 mps 758 mmHg 59%
    08:00 +18°C° 0 mm 1 mps 758 mmHg 53%
    09:00 +20°C° 0 mm 1 mps 758 mmHg 47%
    10:00 +22°C° 0 mm 1 mps 758 mmHg 41%
    11:00 +22°C° 0 mm 1 mps 757 mmHg 39%
    12:00 +23°C° 0 mm 1 mps 757 mmHg 36%
    13:00 +24°C° 0 mm 2 mps 757 mmHg 33%
    14:00 +24°C° 0 mm 2 mps 756 mmHg 35%
    15:00 +24°C° 0 mm 2 mps 756 mmHg 36%
    16:00 +24°C° 0 mm 3 mps 756 mmHg 37%
    17:00 +23°C° 0 mm 2 mps 755 mmHg 45%
    18:00 +21°C° 0 mm 2 mps 755 mmHg 52%
    19:00 +20°C° 0 mm 1 mps 755 mmHg 60%
    20:00 +19°C° 0 mm 1 mps 755 mmHg 64%
    21:00 +16°C° 0 mm 2 mps 755 mmHg 67%
    22:00 +15°C° 0 mm 2 mps 755 mmHg 71%
    23:00 +14°C° 0 mm 2 mps 755 mmHg 75%

    Tomorrow, 25 May, Saturday

    Time Temperature Precipitation Wind Pressure Humidity
    00:00 +14°C° 0 mm 2 mps 755 mmHg 78%
    01:00 +13°C° 0 mm 2 mps 755 mmHg 82%
    02:00 +12°C° 0 mm 2 mps 755 mmHg 86%
    03:00 +12°C° 0 mm 2 mps 755 mmHg 90%
    04:00 +10°C° 0 mm 2 mps 755 mmHg 94%
    05:00 +12°C° 0 mm 2 mps 755 mmHg 88%
    06:00 +12°C° 0 mm 3 mps 756 mmHg 81%
    07:00 +13°C° 0 mm 3 mps 756 mmHg 74%
    08:00 +14°C° 0 mm 3 mps 756 mmHg 70%
    09:00 +15°C° 0 mm 4 mps 756 mmHg 66%
    10:00 +17°C° 0 mm 4 mps 756 mmHg 62%
    11:00 +18°C° 0 mm 4 mps 756 mmHg 59%
    12:00 +18°C° 0 mm 4 mps 756 mmHg 57%
    13:00 +19°C° 0 mm 4 mps 757 mmHg 54%
    14:00 +19°C° 0 mm 4 mps 756 mmHg 54%
    15:00 +19°C° 0 mm 4 mps 756 mmHg 53%
    16:00 +19°C° 0 mm 4 mps 756 mmHg 53%
    17:00 +18°C° 0 mm 4 mps 756 mmHg 59%
    18:00 +17°C° 0 mm 3 mps 756 mmHg 64%
    19:00 +16°C° 0 mm 3 mps 756 mmHg 70%
    20:00 +14°C° 0 mm 2 mps 756 mmHg 77%
    21:00 +12°C° 0 mm 2 mps 756 mmHg 85%
    22:00 +10°C° 0 mm 1 mps 757 mmHg 92%
    23:00 +10°C° 0 mm 1 mps 757 mmHg 92%

    Day after tomorrow, 26 May, Sunday

    Time Temperature Precipitation Wind Pressure Humidity
    00:00 +9°C° 0 mm 2 mps 756 mmHg 92%
    01:00 +9°C° 0 mm 2 mps 756 mmHg 93%
    02:00 +9°C° 0 mm 2 mps 756 mmHg 93%
    03:00 +9°C° 0 mm 2 mps 756 mmHg 93%
    04:00 +9°C° 0 mm 2 mps 756 mmHg 94%
    05:00 +10°C° 0 mm 3 mps 756 mmHg 88%
    06:00 +12°C° 0 mm 3 mps 756 mmHg 82%
    07:00 +13°C° 0 mm 3 mps 756 mmHg 76%
    08:00 +14°C° 0 mm 4 mps 756 mmHg 69%
    09:00 +17°C° 0 mm 4 mps 756 mmHg 62%
    10:00 +17°C° 0 mm 5 mps 756 mmHg 56%
    11:00 +19°C° 0 mm 5 mps 755 mmHg 53%
    12:00 +19°C° 0 mm 5 mps 755 mmHg 50%
    13:00 +20°C° 0 mm 6 mps 755 mmHg 48%
    14:00 +20°C° 0 mm 6 mps 755 mmHg 49%
    15:00 +20°C° 0 mm 6 mps 754 mmHg 50%
    16:00 +20°C° 0 mm 6 mps 754 mmHg 51%
    17:00 +19°C° 0 mm 5 mps 754 mmHg 57%
    18:00 +18°C° 0 mm 4 mps 754 mmHg 63%
    19:00 +17°C° 0 mm 3 mps 754 mmHg 70%
    20:00 +16°C° 0 mm 3 mps 754 mmHg 75%
    21:00 +14°C° 0 mm 2 mps 754 mmHg 81%
    22:00 +13°C° 0 mm 2 mps 754 mmHg 87%
    23:00 +14°C° 0 mm 2 mps 754 mmHg 85%

    27 May, Monday

    Time Temperature Precipitation Wind Pressure Humidity
    00:00 +13°C° 0 mm 3 mps 754 mmHg 82%
    01:00 +14°C° 0 mm 3 mps 754 mmHg 80%
    02:00 +14°C° 0 mm 3 mps 753 mmHg 79%
    03:00 +14°C° 0 mm 4 mps 753 mmHg 79%
    04:00 +15°C° 0 mm 4 mps 752 mmHg 78%
    05:00 +15°C° 0.1 mm 4 mps 752 mmHg 78%
    06:00 +15°C° 0.1 mm 4 mps 752 mmHg 78%
    07:00 +17°C° 0.1 mm 4 mps 752 mmHg 78%
    08:00 +17°C° 0.3 mm 4 mps 752 mmHg 79%
    09:00 +18°C° 0.3 mm 4 mps 752 mmHg 80%
    10:00 +17°C° 0.3 mm 5 mps 752 mmHg 80%
    11:00 +17°C° 0.1 mm 5 mps 752 mmHg 79%
    12:00 +17°C° 0.1 mm 5 mps 752 mmHg 78%
    13:00 +17°C° 0.1 mm 5 mps 752 mmHg 76%
    14:00 +17°C° 0 mm 5 mps 752 mmHg 72%
    15:00 +19°C° 0 mm 4 mps 753 mmHg 69%
    16:00 +19°C° 0 mm 4 mps 753 mmHg 65%
    17:00 +18°C° 0 mm 3 mps 753 mmHg 67%
    18:00 +18°C° 0 mm 2 mps 753 mmHg 69%
    19:00 +19°C° 0 mm 1 mps 753 mmHg 71%
    20:00 +18°C° 0 mm 1 mps 753 mmHg 75%
    21:00 +16°C° 0 mm 1 mps 754 mmHg 78%
    22:00 +15°C° 0 mm 1 mps 754 mmHg 82%
    23:00 +14°C° 0 mm 1 mps 754 mmHg 85%

    28 May, Tuesday

    Time Temperature Precipitation Wind Pressure Humidity
    00:00 +13°C° 0 mm 1 mps 754 mmHg 89%
    01:00 +12°C° 0 mm 1 mps 754 mmHg 92%
    02:00 +11°C° 0 mm 1 mps 754 mmHg 93%
    03:00 +11°C° 0 mm 1 mps 754 mmHg 94%
    04:00 +11°C° 0 mm 1 mps 754 mmHg 94%
    05:00 +13°C° 0 mm 1 mps 754 mmHg 88%
    06:00 +14°C° 0 mm 1 mps 753 mmHg 81%
    07:00 +16°C° 0 mm 1 mps 753 mmHg 74%
    08:00 +17°C° 0 mm 2 mps 753 mmHg 66%
    09:00 +19°C° 0 mm 2 mps 753 mmHg 59%
    10:00 +20°C° 0 mm 2 mps 753 mmHg 51%
    11:00 +20°C° 0 mm 2 mps 753 mmHg 51%
    12:00 +21°C° 0 mm 2 mps 753 mmHg 50%
    13:00 +21°C° 0 mm 2 mps 752 mmHg 49%
    14:00 +21°C° 0.1 mm 2 mps 752 mmHg 53%
    15:00 +20°C° 0.1 mm 2 mps 752 mmHg 56%
    16:00 +20°C° 0.1 mm 2 mps 752 mmHg 60%
    17:00 +19°C° 0.2 mm 2 mps 752 mmHg 68%
    18:00 +18°C° 0.2 mm 2 mps 752 mmHg 77%
    19:00 +17°C° 0.2 mm 2 mps 753 mmHg 85%
    20:00 +16°C° 0 mm 2 mps 753 mmHg 88%
    21:00 +15°C° 0 mm 2 mps 753 mmHg 92%
    22:00 +14°C° 0 mm 2 mps 753 mmHg 95%
    23:00 +14°C° 0 mm 2 mps 753 mmHg 96%

    29 May, Wednesday

    Time Temperature Precipitation Wind Pressure Humidity
    00:00 +13°C° 0 mm 2 mps 753 mmHg 96%
    01:00 +13°C° 0 mm 2 mps 753 mmHg 97%
    02:00 +12°C° 0 mm 2 mps 753 mmHg 96%
    03:00 +12°C° 0 mm 2 mps 753 mmHg 95%
    04:00 +10°C° 0 mm 2 mps 754 mmHg 94%
    05:00 +12°C° 0 mm 2 mps 754 mmHg 88%
    06:00 +13°C° 0 mm 2 mps 754 mmHg 81%
    07:00 +14°C° 0 mm 2 mps 754 mmHg 75%
    08:00 +16°C° 0 mm 2 mps 755 mmHg 67%
    09:00 +17°C° 0 mm 2 mps 755 mmHg 59%
    10:00 +19°C° 0 mm 3 mps 755 mmHg 51%
    11:00 +19°C° 0 mm 3 mps 755 mmHg 49%
    12:00 +20°C° 0 mm 3 mps 755 mmHg 46%
    13:00 +21°C° 0 mm 3 mps 756 mmHg 44%
    14:00 +20°C° 0 mm 4 mps 756 mmHg 47%
    15:00 +20°C° 0 mm 4 mps 756 mmHg 50%
    16:00 +19°C° 0 mm 5 mps 757 mmHg 54%
    17:00 +16°C° 0.4 mm 5 mps 757 mmHg 64%
    18:00 +14°C° 0.4 mm 5 mps 758 mmHg 75%
    19:00 +12°C° 0.4 mm 5 mps 758 mmHg 86%
    20:00 +12°C° 0.3 mm 4 mps 759 mmHg 88%
    21:00 +11°C° 0.3 mm 4 mps 759 mmHg 90%
    22:00 +10°C° 0.3 mm 3 mps 760 mmHg 92%
    23:00 +10°C° 0.2 mm 3 mps 760 mmHg 93%
    Show more